Regional Weather Roundup
Issued by NWS

Home | Current Version | Previous Version | Graphics & Text | Print | Product List | Glossary On
Versions: 1 2 3 4 5 6 7 8 9 10 11 12 13 14 15 16 17 18 19 20 21 22 23 24 25 26 27 28 29 30 31 32 33 34 35 36 37 38 39 40 41 42 43 44 45 46 47 48 49 50
000
ASUS43 KMPX 261001
RWRMN
WEATHER ROUNDUP FOR MINNESOTA
NATIONAL WEATHER SERVICE TWIN CITIES/CHANHASSEN MN
500 AM CDT THU MAR 26 2015


NOTE: "FAIR" INDICATES FEW OR NO CLOUDS BELOW 12,000 FEET WITH NO
SIGNIFICANT WEATHER AND/OR OBSTRUCTIONS TO VISIBILITY. N/A MEANS
CURRENT SKY AND/OR WEATHER CONDITIONS ARE NOT AVAILABLE.

MNZ060>063-068>070-261100-
   Twin Cities Metro

CITY           SKY/WX    TMP DP  RH WIND       PRES   REMARKS
TWIN CITIES    PTCLDY    28  20  71 NW10      30.06F WCI  19
ST PAUL        CLOUDY    30  20  66 NW14      30.07S WCI  19
CRYSTAL        CLEAR     29  20  69 NW12      30.05F WCI  19
BLAINE         CLOUDY    30  21  69 NW15      30.05S WCI  19
LAKEVILLE      CLEAR     25  19  80 W8        30.06F WCI  16
EDEN PRAIRIE   CLEAR     28  19  69 NW10      30.05F WCI  19
SOUTH ST PAUL  CLOUDY    32  20  63 W12       30.05S WCI  23
LAKE ELMO      CLOUDY    32  21  64 W13       30.04F WCI  22
$$
MNZ001>005-007-008-013>017-022>024-027-028-261100-
   Northwest Minnesota

CITY           SKY/WX    TMP DP  RH WIND       PRES   REMARKS
BEMIDJI        CLOUDY    25  17  73 N10       30.09S WCI  14
HALLOCK        PTCLDY    23  18  80 N9        30.20S WCI  13
ROSEAU         CLOUDY    23  16  74 N15       30.17R WCI  10
WARROAD        FLURRIES  21  16  79 N12       30.16R WCI   9
THIEF RVR FALL CLOUDY    25  19  80 NW10      30.16S WCI  15
CROOKSTON      MOCLDY    23  19  86 N9        30.19S WCI  13
FOSSTON        CLOUDY    21  18  86 NW9       30.14S WCI  11
DETROIT LAKES  CLEAR     21  19  93 NW7       30.14S WCI  13
MOORHEAD       PTCLDY    23  23 100 N7        30.18S WCI  15
PARK RAPIDS    CLOUDY    24  18  77 NW10      30.09S WCI  14
MAHNOMEN       PTSUNNY   20  17  87 NW10      30.14S WCI   9
$$
MNZ006-009>011-018-025>026-261100-
   North Central Minnesota

CITY           SKY/WX    TMP DP  RH WIND       PRES   REMARKS
BAUDETTE       CLOUDY    21  11  65 N12G21    30.13R WCI   9
FLAG ISLAND    PTCLDY    19  12  73 N14       30.15S WCI   6
INTL FALLS     CLEAR     16   6  65 N18       30.11R WCI   0
WASKISH        CLOUDY    23  16  74 N8        30.12S WCI  14
BIG FORK       FLURRIES  23  16  74 NW5       30.08R WCI  17
LONGVILLE      FLURRIES  27  21  80 NW6       30.07S WCI  20
GRAND RAPIDS   CLOUDY    25  14  63 NW16      30.04S WCI  12
CRANE LAKE     CLOUDY    18  12  79 NW12G18   30.09R WCI   5
ORR            CLOUDY    19  12  73 NW8       30.04R WCI   9
COOK           CLOUDY    19  12  73 NW6       30.05R WCI  11
WALKER         FLURRIES  25  17  73 NW6       30.08S WCI  18
$$
MNZ012-019>021-037-261100-
   Northeast Minnesota

CITY           SKY/WX    TMP DP  RH WIND       PRES   REMARKS
DULUTH         FLURRIES  24  15  68 N17G25    29.97S WCI  11
ELY            FLURRIES  18  10  73 NW13G23   30.01R WCI   4
HIBBING        CLOUDY    22  13  68 N13       30.04R WCI  10
EVELETH        FLURRIES  23  16  74 NW12G18   30.03R WCI  12
DULUTH HARBOR  CLOUDY    28  19  69 NW13G22   30.03S WCI  18
TWO HARBORS    PTCLDY    25  16  68 NW9G26    29.95F WCI  15
SILVER BAY     PTCLDY    21  12  68 NW10      29.95R WCI  10
GRAND MARAIS     N/A     22  10  60 NW18G45   29.90R WCI   7
G MARAIS ARPRT FLURRIES  14   7  73 NW15G26   29.87R WCI  -1
$$
MNZ029>031-032-039>041-046>048-054>057-064-261100-
   West Central Minnesota

CITY           SKY/WX    TMP DP  RH WIND       PRES   REMARKS
FERGUS FALLS   CLEAR     21  16  79 N6        30.18S WCI  14
WHEATON        CLEAR     23  19  86 NW8       30.18F WCI  14
MORRIS         CLEAR     27  21  80 N10       30.13S WCI  17
ALEXANDRIA     CLEAR     24  18  77 NW12      30.12S WCI  13
ELBOW LAKE     FAIR      24  20  87 N9        30.13F WCI  14
WADENA         CLEAR     19  16  86 NW8       30.10F WCI   9
GLENWOOD       CLEAR     25  19  80 NW10G18   30.11S WCI  15
APPLETON       CLEAR     28  25  86 N10       30.14F WCI  19
BENSON         CLEAR     23  19  86 N7        30.13F WCI  15
ORTONVILLE     CLEAR     27  21  80 N9        30.15S WCI  17
MADISON        PTCLDY    30  25  80 N8        30.15S WCI  23
WILLMAR        FAIR      27  19  74 NW9       30.12S WCI  17
$$
MNZ033>034-036-042>043-049>051-058-059-261100-
   Central Minnesota

CITY           SKY/WX    TMP DP  RH WIND       PRES   REMARKS
ST CLOUD       CLEAR     26  19  74 NW12      30.07S WCI  16
SAUK CENTRE    FAIR      24  18  77 NW14      30.10S WCI  12
PAYNESVILLE    CLEAR     23  19  83 W9        30.10S WCI  13
AITKIN         CLOUDY    30  19  64 NW10G17   30.04S WCI  21
PINE RIVER     CLOUDY    27  19  74 NW10      30.10S WCI  17
BRAINERD       CLOUDY    27  17  66 N17G24    30.07F WCI  14
STAPLES        CLOUDY    21  18  86 NW9       30.09F WCI  11
LONG PRAIRIE   FAIR      23  18  80 NW9       30.09F WCI  13
LITTLE FALLS   MOCLDY    27  18  69 NW7       30.08F WCI  19
LITCHFIELD     CLEAR     28  23  80 NW8       30.10R WCI  20
BUFFALO        CLEAR     28  19  71 NW10      30.09S WCI  18
MAPLE LAKE     CLEAR     28  22  77 NW9       30.09R WCI  19
$$
MNZ037-044-045-052-053-261100-
   East Central Minnesota

CITY           SKY/WX    TMP DP  RH WIND       PRES   REMARKS
PRINCETON      CLOUDY    28  21  74 W12       30.07R WCI  18
MORA           CLOUDY    28  19  69 NW15G22   30.07R WCI  17
CAMBRIDGE      CLOUDY    32  19  59 NW7       30.04R WCI  26
RUSH CITY      CLOUDY    29  20  69 NW12G21   30.05R WCI  20
MOOSE LAKE     CLOUDY    30  18  59 N10G16    30.01R WCI  21
HINCKLEY       CLOUDY    30  21  69 NW12G18   30.03S WCI  21
CLOQUET        CLOUDY    27  16  63 NW10G17   29.99S WCI  17
MCGREGOR       CLOUDY    28  19  69 NW17G23   30.04S WCI  16
$$
MNZ071>073-080-081-089-090-097-098-261100-
   Southwest Minnesota

CITY           SKY/WX    TMP DP  RH WIND       PRES   REMARKS
MONTEVIDEO     CLEAR     28  25  86 N8        30.15F WCI  20
GRANITE FALLS  CLEAR     28  24  84 NW7       30.15S WCI  21
CANBY          MOCLDY    32  27  80 NW8       30.15F WCI  25
MARSHALL       PTCLDY    28  21  74 W8        30.14S WCI  20
REDWOOD FALLS  CLEAR     31  23  72 NW8       30.13S WCI  23
OLIVIA         CLEAR     28  25  86 NW7       30.12S WCI  21
PIPESTONE      CLOUDY    27  21  80 W3        30.14S
WINDOM         PTCLDY    27  21  80 W7        30.13F WCI  19
WORTHINGTON    MOCLDY    25  19  80 W8        30.15S WCI  16
JACKSON        MOCLDY    28  21  74 W8        30.13F WCI  20
TRACY          PTCLDY    31  25  80 W6        30.14S WCI  25
SLAYTON        PTCLDY    27  21  77 CALM      30.14F
$$
MNZ065>067-074>077-082>085-091>093-261100-
   South Central Minnesota

CITY           SKY/WX    TMP DP  RH WIND       PRES   REMARKS
MANKATO        CLEAR     28  19  69 NW10      30.10R WCI  19
NEW ULM        CLEAR     28  21  74 NW13      30.12S WCI  18
ST JAMES       CLEAR     28  25  86 W10       30.13F WCI  19
FAIRMONT       CLEAR     28  14  54 W13       30.10F WCI  18
GLENCOE        CLEAR     26  21  80 W9        30.09F WCI  17
FARIBAULT      CLEAR     28  19  69 W12       30.07S WCI  18
OWATONNA       CLEAR     27  19  74 NW15      30.06F WCI  15
WASECA         CLEAR     27  21  80 NW13      30.09S WCI  16
ALBERT LEA     CLEAR     28  23  80 NW10      30.06S WCI  19
$$
MNZ078>079-086>088-094>096-261100-
   Southeast Minnesota

CITY           SKY/WX    TMP DP  RH WIND       PRES   REMARKS
ROCHESTER      CLEAR     26  18  71 NW20      30.02S WCI  12
RED WING       CLOUDY    34  19  55 NW10      30.03S WCI  26
STANTON        PTCLDY    27  20  76 W9        30.05S WCI  17
DODGE CENTER   CLEAR     28  21  74 NW15      30.03R WCI  17
WINONA         CLOUDY    32  23  69 NW8       30.02S WCI  25
AUSTIN         CLEAR     27  19  74 NW12      30.04S WCI  16
PRESTON        CLEAR     27  19  73 NW12      30.02R WCI  16
$$
ABBREVIATIONS USED IN REMARKS
   TC - TEMPERATURES IN CELSIUS
  WCI - WIND CHILL INDEX
   HX - HEAT INDEX
  VSB - VISIBILITY
$$


USA.gov is the U.S. government's official web portal to all federal, state and local government web resources and services.